Вернуться в каталог

STARLINK-36184

АктивенСвязьVLEO
NORAD 67021·PAYLOAD·🇺🇸 United States

Запущен Dec 10, 2025 с Vandenberg Space Force Base

Loading…

Ближайшие Пролёты (ближайшие 24 часа)

TLE

СвежийSource: CelesTrak SupGP

Эпоха: Sep 15, 2026, 02:53 UTC

1 67021C 25293U   26258.12062500  .00060540  00000+0  50736-2 0  2581
2 67021  70.0021 336.9317 0003709 265.7191 332.4826 14.98298064    10

Отслеживайте STARLINK-36184 в реальном времени с AllMySat

Download on the App Store